Location: Kelowna
(49.8880°N, 119.4960°W)
Time: 20:48:47
(UTC-07:00)

STRAND 1 - Visible Passes

Search period start: 15 April 2024 00:00
Search period end: 25 April 2024 00:00
Orbit: 764 x 779 km, 98.4° (Epoch: 15 April)

Date Brightness Start Highest point End Pass type
(mag) Time Alt. Az. Time Alt. Az. Time Alt. Az.
15 Apr ? 05:09:25 10° ESE 05:13:29 25° ENE 05:17:33 10° N visible
15 Apr ? 20:31:47 10° N 20:36:27 37° WNW 20:41:06 10° SW visible
16 Apr ? 04:36:27 10° E 04:39:05 14° NE 04:41:43 10° NNE visible
16 Apr ? 21:37:38 10° NNW 21:40:01 13° NW 21:42:23 10° W visible
17 Apr ? 21:01:41 10° N 21:05:38 23° WNW 21:09:35 10° WSW visible
18 Apr ? 05:04:14 10° ESE 05:08:08 23° ENE 05:12:03 10° N visible
18 Apr ? 20:26:19 10° N 20:31:05 41° WNW 20:35:50 10° SW visible
19 Apr ? 04:31:28 10° E 04:33:46 13° NE 04:36:04 10° NNE visible
19 Apr ? 21:31:59 10° NNW 21:34:42 15° NW 21:37:24 10° W visible
20 Apr ? 20:56:10 10° N 21:00:17 25° WNW 21:04:24 10° WSW visible
21 Apr ? 04:59:04 10° ESE 05:02:47 21° ENE 05:06:31 10° N visible
22 Apr ? 04:26:32 10° ENE 04:28:26 12° NE 04:30:19 10° NNE visible
22 Apr ? 21:26:22 10° NNW 21:29:21 16° NW 21:32:21 10° W visible
23 Apr ? 20:50:39 10° N 20:54:55 27° WNW 20:59:10 10° WSW visible
24 Apr ? 04:53:54 10° E 04:57:26 19° ENE 05:00:58 10° NNE visible
